| time (UTC) | temp C | wind direction | speed KPH | gust KPH | rain 1hr cm | rain 24hr cm | rain mn cm | humidity % | barometer mb |
| 20260504041544 | 7 | 183 | 1.6 | 8.0 | 0.00 | 0.00 | 0.00 | 57 | 1013.4 |
| 20260504040047 | 8 | 0 | 0.0 | 3.2 | 0.00 | 0.00 | 0.00 | 57 | 1013.4 |
| 20260504034542 | 8 | 0 | 0.0 | 3.2 | 0.00 | 0.00 | 0.00 | 58 | 1013.1 |
| 20260504033049 | 7 | 0 | 0.0 | 8.0 | 0.00 | 0.00 | 0.00 | 58 | 1013.1 |
| 20260504031541 | 7 | 0 | 0.0 | 6.4 | 0.00 | 0.00 | 0.00 | 58 | 1013.1 |
| 20260504030049 | 7 | 0 | 0.0 | 3.2 | 0.00 | 0.00 | 0.00 | 58 | 1013.1 |
| 20260504024555 | 8 | 0 | 0.0 | 1.6 | 0.00 | 0.00 | 0.00 | 58 | 1013.2 |
| 20260504023046 | 8 | 0 | 0.0 | 1.6 | 0.00 | 0.00 | 0.00 | 57 | 1013.2 |
| 20260504021551 | 8 | 0 | 0.0 | 1.6 | 0.00 | 0.00 | 0.00 | 57 | 1013.2 |
| 20260504020046 | 8 | 0 | 0.0 | 6.4 | 0.00 | 0.00 | 0.00 | 56 | 1013.2 |
| 20260504014538 | 8 | 0 | 0.0 | 1.6 | 0.00 | 0.00 | 0.00 | 54 | 1013.1 |
| 20260504013103 | 9 | 0 | 0.0 | 4.8 | 0.00 | 0.00 | 0.00 | 52 | 1013.1 |
| 20260504011545 | 10 | 0 | 0.0 | 1.6 | 0.00 | 0.00 | 0.00 | 50 | 1013.0 |
| 20260504010043 | 10 | 0 | 0.0 | 3.2 | 0.00 | 0.00 | 0.00 | 49 | 1013.0 |
| 20260504004556 | 11 | 0 | 0.0 | 6.4 | 0.00 | 0.00 | 0.00 | 47 | 1012.9 |
| 20260504003046 | 11 | 0 | 0.0 | 12.9 | 0.00 | 0.00 | 0.00 | 45 | 1012.7 |
| 20260504001548 | 11 | 225 | 0.0 | 11.3 | 0.00 | 0.00 | 0.00 | 44 | 1012.6 |
| 20260504000044 | 12 | 0 | 0.0 | 12.9 | 0.00 | 0.00 | 0.00 | 43 | 1012.5 |
| 20260503234544 | 12 | 292 | 3.2 | 14.5 | 0.00 | 0.00 | 0.00 | 40 | 1012.5 |
| 20260503233042 | 12 | 253 | 9.7 | 20.9 | 0.00 | 0.00 | 0.00 | 40 | 1012.5 |
| 20260503231549 | 13 | 280 | 9.7 | 25.7 | 0.00 | 0.00 | 0.00 | 39 | 1012.4 |
| 20260503230041 | 13 | 261 | 3.2 | 16.1 | 0.00 | 0.00 | 0.00 | 40 | 1012.5 |
| 20260503224546 | 13 | 227 | 6.4 | 20.9 | 0.00 | 0.00 | 0.00 | 38 | 1012.4 |
| 20260503223044 | 13 | 242 | 8.0 | 22.5 | 0.00 | 0.00 | 0.00 | 39 | 1012.5 |
| 20260503221543 | 13 | 275 | 6.4 | 25.7 | 0.00 | 0.00 | 0.00 | 40 | 1012.5 |
| 20260503220046 | 13 | 259 | 6.4 | 27.4 | 0.00 | 0.00 | 0.00 | 39 | 1012.5 |
| 20260503214539 | 13 | 235 | 9.7 | 25.7 | 0.00 | 0.00 | 0.00 | 37 | 1012.5 |
| 20260503213046 | 13 | 236 | 8.0 | 22.5 | 0.00 | 0.00 | 0.00 | 38 | 1012.5 |
| 20260503211545 | 13 | 319 | 12.9 | 30.6 | 0.00 | 0.00 | 0.00 | 38 | 1012.3 |
| 20260503210043 | 13 | 232 | 9.7 | 29.0 | 0.00 | 0.00 | 0.00 | 39 | 1012.4 |
| 20260503204544 | 13 | 254 | 8.0 | 25.7 | 0.00 | 0.00 | 0.00 | 38 | 1012.4 |
| 20260503203042 | 13 | 282 | 6.4 | 19.3 | 0.00 | 0.00 | 0.00 | 39 | 1012.6 |
| 20260503201544 | 13 | 311 | 9.7 | 22.5 | 0.00 | 0.00 | 0.00 | 38 | 1012.8 |
| 20260503200047 | 13 | 332 | 9.7 | 25.7 | 0.00 | 0.00 | 0.00 | 39 | 1012.8 |
| 20260503194549 | 13 | 276 | 9.7 | 29.0 | 0.00 | 0.00 | 0.00 | 37 | 1012.9 |
| 20260503193046 | 13 | 286 | 8.0 | 22.5 | 0.00 | 0.00 | 0.00 | 38 | 1013.1 |
| 20260503191544 | 12 | 216 | 6.4 | 25.7 | 0.00 | 0.00 | 0.00 | 42 | 1013.2 |
| 20260503190050 | 13 | 249 | 8.0 | 22.5 | 0.00 | 0.00 | 0.00 | 38 | 1013.3 |
| 20260503184555 | 12 | 259 | 9.7 | 25.7 | 0.00 | 0.00 | 0.00 | 42 | 1013.4 |
| 20260503183044 | 12 | 331 | 8.0 | 30.6 | 0.00 | 0.00 | 0.00 | 42 | 1013.7 |
| 20260503181544 | 12 | 313 | 8.0 | 30.6 | 0.00 | 0.00 | 0.00 | 39 | 1013.7 |
| 20260503180053 | 12 | 0 | 12.9 | 29.0 | 0.00 | 0.00 | 0.00 | 41 | 1013.7 |
| 20260503174602 | 11 | 267 | 11.3 | 33.8 | 0.00 | 0.00 | 0.00 | 42 | 1013.9 |
| 20260503173048 | 11 | 302 | 9.7 | 25.7 | 0.00 | 0.00 | 0.00 | 42 | 1014.0 |
| 20260503171540 | 11 | 223 | 4.8 | 20.9 | 0.00 | 0.00 | 0.00 | 42 | 1014.0 |
| 20260503081549 | 2 | 286 | 4.8 | 14.5 | 0.00 | 0.00 | 0.00 | 70 | 1013.8 |
| 20260503071543 | 2 | 327 | 3.2 | 12.9 | 0.00 | 0.03 | 0.00 | 68 | 1013.8 |
| 20260503054545 | 3 | 0 | 1.6 | 12.9 | 0.00 | 0.08 | 0.00 | 65 | 1013.9 |
| 20260503053043 | 3 | 325 | 3.2 | 12.9 | 0.00 | 0.08 | 0.00 | 64 | 1013.9 |
| 20260503051543 | 4 | 0 | 1.6 | 8.0 | 0.00 | 0.08 | 0.00 | 64 | 1013.9 |
| 20260503050049 | 4 | 349 | 0.0 | 11.3 | 0.00 | 0.08 | 0.00 | 64 | 1014.0 |
| 20260503044552 | 4 | 321 | 0.0 | 9.7 | 0.00 | 0.20 | 0.00 | 63 | 1014.0 |
| 20260503043045 | 4 | 0 | 0.0 | 4.8 | 0.00 | 0.20 | 0.00 | 63 | 1014.0 |